Regional Weather Roundup
Issued by NWS

Home | Current Version | Previous Version | Graphics & Text | Print | Product List | Glossary On
Versions: 1 2 3 4 5 6 7 8 9 10 11 12 13 14 15 16 17 18 19 20 21 22 23 24 25 26 27 28 29 30 31 32 33 34 35 36 37 38 39 40 41 42 43 44 45 46 47 48 49 50
000
ASUS43 KIND 311059
RWRIN

WEATHER ROUNDUP FOR INDIANA
NATIONAL WEATHER SERVICE INDIANAPOLIS IN
700 AM EDT FRI JUL 31 2015

NOTE: "FAIR" INDICATES FEW OR NO CLOUDS BELOW 12,000 FEET WITH NO
SIGNIFICANT WEATHER AND/OR OBSTRUCTIONS TO VISIBILITY.

* - STATION DOES NOT REPORT WEATHER SUCH AS PRECIPITATION OR FOG.

+ - STATION NOT QUALITY CONTROLLED BY THE NATIONAL WEATHER SERVICE.
    USE DATA WITH CAUTION...ESPECIALLY DEWPOINT AND RELATIVE
    HUMIDITY OBSERVATIONS.

INZ001>003-010>013-019-020-311200-
NORTHWEST INDIANA

CITY           SKY/WX    TMP DP  RH WIND       PRES   REMARKS
GARY /AIRPORT/ CLEAR     64  61  88 SW7       30.03S
KNOX *+        CLEAR     63  63 100 CALM      30.02S
MONTICELLO +   CLEAR     64  64  97 CALM      30.04R
RENSSELAER +   CLEAR     63  63 100 SW5       30.05S

$$

LMZ046-743>745-311200-
SOUTHERN LAKE MICHIGAN

STATION/POSITION TIME  TEMP    WIND        PRES    WAVE
                       AIR SEA DIR/SP/G            HT
                 (UTC) (F)     (DEG/KT/KT) (MB)    (FT)
BURNS HARBOR     1000   73     240/ 10/ 12 1016.9S
MICHIGAN CITY    1000   71     190/  8/ 12   N/A
5NW MICH CITY    1000   74 73  280/  8/ 12   N/A     2

$$

INZ004-005-014>016-021>024-311200-
NORTH CENTRAL INDIANA

CITY           SKY/WX    TMP DP  RH WIND       PRES   REMARKS
ELKHART        CLEAR     64  61  88 W3        30.01
GOSHEN         CLEAR     62  59  90 S3        30.01S
SOUTH BEND     CLEAR     65  61  87 SW6       30.02S
WARSAW +       CLEAR     63  61  94 W3        30.02S

$$

INZ006>009-017-018-025>027-311200-
NORTHEAST INDIANA

CITY           SKY/WX    TMP DP  RH WIND       PRES   REMARKS
ANGOLA *+      CLEAR     64  61  88 NW3       30.00S
FORT WAYNE     CLEAR     65  62  90 W8        30.02R

$$

INZ028-029-035-036-043>045-051>053-311200-
WEST CENTRAL INDIANA

CITY           SKY/WX    TMP DP  RH WIND       PRES   REMARKS
CRAWFORDSVL +  CLEAR     62  62 100 W3          N/A
GREENCASTLE +  CLEAR     66  59  77 CALM      30.08R
LAFAYETTE      CLEAR     62  61  96 W3        30.05S
TERRE HAUTE    CLEAR     64  61  90 N3        30.07R

$$

INZ030>032-037>040-046>048-054>057-064-065-311200-
CENTRAL INDIANA

CITY           SKY/WX    TMP DP  RH WIND       PRES   REMARKS
FRANKFORT +    CLEAR    N/A N/A N/A SW5       30.07S
GREENWOOD *+   CLEAR     63  61  94 W5        30.06R
INDIANAPOLIS   PTCLDY    69  62  78 NW7       30.04R
-EAGLE CREEK   CLEAR     69  64  84 N7        30.05R
KOKOMO *+      CLEAR     64  61  88 W6        30.04S
MT COMFORT *+  CLEAR     63 N/A N/A CALM      30.05R
SHELBYVILLE    CLEAR     65  61  87 SW3       30.04S

$$

INZ033-034-041-042-049-050-058-059-311200-
EAST CENTRAL INDIANA

CITY           SKY/WX    TMP DP  RH WIND       PRES   REMARKS
MUNCIE         CLEAR     63  61  93 W7        30.04R

$$

INZ060-061-067>069-081>083-085>088-311200-
SOUTHWEST INDIANA

CITY           SKY/WX    TMP DP  RH WIND       PRES   REMARKS
EVANSVILLE     CLEAR     71  64  78 NW6       30.08R
HUNTINGBURG *+ CLEAR     64  61  88 CALM      30.08R

$$

INZ062-063-066-070>080-084-089>092-311200-
SOUTH CENTRAL AND SOUTHEAST INDIANA

CITY           SKY/WX    TMP DP  RH WIND       PRES   REMARKS
BLOOMINGTON    CLEAR     62  61  96 CALM      30.07R
MADISON *+     CLEAR     61  59  94 CALM      30.09R
SEYMOUR +      CLEAR     61  61 100 CALM      30.06R

$$




USA.gov is the U.S. government's official web portal to all federal, state and local government web resources and services.